Flag for India Weather past 2 weeks in Jaisalmer, Rajasthan, India

Now
79 °F

Haze.


Feels Like: 82 °F
Forecast: 78 / 96 °F
Wind: No wind

Location: Sukkur

Current Time: Oct 2, 2014 at 4:42:13 AM

Latest Report: Oct 2, 2014 at 3:30 AM


Visibility: 2 mi

Pressure: 29.71 "Hg

Humidity: 79%

Dew point: 72 °F

Location of JaisalmerLocation

Historic Weather in Jaisalmer — Graph

°F

Jaisalmer temperature yesterday

Maximum temperature yesterday: 102 °F (at 5:30 PM)
Minimum temperature yesterday: 77 °F (at 6:30 AM)
Average temperature yesterday: 90 °F

Past Weeks' High & Low Weather Summary

 TemperatureHumidityPressure
High106 °F (Sep 19, 4:30 PM)89% (Sep 18, 7:30 AM)29.83 "Hg (Sep 18, 7:30 AM)
Low75 °F (Sep 20, 7:30 AM)32% (Sep 19, 4:30 PM)29.50 "Hg (Sep 17, 3:30 PM)
Average89 °F62%29.66 "Hg
* Reported Sep 17 5:30 AM — Oct 2 3:30 AM, Jaisalmer, Weather by CustomWeather, © 2014

Note: Actual official high and low records may vary slightly from our data, if they occured in-between our weather recording intervals... More about our weather records

Advertising

Jaisalmer weather history for previous 24 hours

 ConditionsComfort  
Time TempWeatherWind HumidityBarometerVisibility
3:30 AM
Oct 2
79 °FHaze.No wind79%29.71 "Hg2 mi
2:30 AM81 °FHaze.No wind79%29.74 "Hg2 mi
1:30 AM82 °FHaze.No wind74%29.74 "Hg2 mi
12:30 AM84 °FHaze.No wind70%29.74 "Hg2 mi
11:30 PM
Oct 1
84 °FHaze.No wind70%29.77 "Hg2 mi
10:30 PM86 °FHaze.No wind66%29.77 "Hg2 mi
9:30 PM88 °FHaze.No wind66%29.77 "Hg2 mi
8:30 PM90 °FHaze.No wind59%29.74 "Hg3 mi
7:30 PM93 °FHaze.No wind56%29.74 "Hg3 mi
6:30 PM99 °FHaze.No wind44%29.74 "Hg4 mi
5:30 PM102 °FHaze.No wind40%29.74 "Hg4 mi
4:30 PM99 °FHaze.No wind47%29.74 "Hg4 mi
3:30 PM99 °FHaze.No wind47%29.77 "Hg4 mi
2:30 PM99 °FHaze.7 mph47%29.77 "Hg4 mi
1:30 PM97 °FHaze.7 mph50%29.80 "Hg3 mi
12:30 PM95 °FHaze.7 mph53%29.80 "Hg3 mi
11:30 AM91 °FHaze.7 mph59%29.83 "Hg2 mi
10:30 AM86 °FHaze.7 mph66%N/A2 mi
9:30 AM84 °FHaze.7 mph70%N/A2 mi
6:30 AM77 °FHaze.9 mph83%N/A2 mi
Weather by CustomWeather, © 2014

See weather overviewHow to use our weather pages